Location: Nairn
(57.5833°N, 3.8667°W)
Time: 02:07:01
(UTC+00:00)

Cosmos 968 Rocket - Pass Details

Date: 07 August 2020
Orbit: 740 x 771 km, 74.0° (Epoch: 19 September)

Event Time Altitude Azimuth Distance (km) Brightness Sun altitude
Exits shadow 01:59:13 14° 238° (WSW) 1,983 5.2 -13.4°
Maximum altitude 02:03:24 48° 310° (NW) 977 4.1 -13.1°
Drops below altitude 10° 02:08:23 10° 24° (NNE) 2,275 7.5 -12.8°
Sets 02:10:51 0° 31° (NNE) 3,207 8.8 -12.7°
